• In Czech Republic
  • List of Countries
  • For 7 days
  • Water Temperature
  • Satellite Maps
  • Weather Map
  • Weather Widgets
  • user-avatar
    Login

    Hourly Weather Selargius

    Today, 18 November, Saturday

    Time Temperature Precipitation Wind Pressure Humidity
    00:00 +12°C° 0 mm 2 mps 760 mmHg 86%
    01:00 +12°C° 0 mm 2 mps 760 mmHg 86%
    02:00 +12°C° 0 mm 2 mps 760 mmHg 87%
    03:00 +12°C° 0 mm 2 mps 760 mmHg 87%
    04:00 +10°C° 0 mm 2 mps 760 mmHg 87%
    05:00 +10°C° 0 mm 2 mps 760 mmHg 87%
    06:00 +10°C° 0 mm 2 mps 760 mmHg 87%
    07:00 +10°C° 0 mm 2 mps 760 mmHg 87%
    08:00 +13°C° 0 mm 2 mps 760 mmHg 78%
    09:00 +15°C° 0 mm 2 mps 760 mmHg 70%
    10:00 +18°C° 0 mm 1 mps 761 mmHg 61%
    11:00 +19°C° 0 mm 1 mps 761 mmHg 58%
    12:00 +20°C° 0 mm 1 mps 761 mmHg 54%
    13:00 +21°C° 0 mm 1 mps 761 mmHg 51%
    14:00 +19°C° 0 mm 2 mps 760 mmHg 53%
    15:00 +19°C° 0 mm 2 mps 760 mmHg 56%
    16:00 +18°C° 0 mm 2 mps 760 mmHg 59%
    17:00 +17°C° 0 mm 2 mps 760 mmHg 67%
    18:00 +15°C° 0 mm 2 mps 760 mmHg 75%
    19:00 +14°C° 0 mm 1 mps 761 mmHg 83%
    20:00 +13°C° 0 mm 1 mps 761 mmHg 85%
    21:00 +13°C° 0 mm 1 mps 761 mmHg 86%
    22:00 +13°C° 0 mm 1 mps 761 mmHg 88%
    23:00 +12°C° 0 mm 1 mps 761 mmHg 88%

    Tomorrow, 19 November, Sunday

    Time Temperature Precipitation Wind Pressure Humidity
    00:00 +12°C° 0 mm 1 mps 761 mmHg 89%
    01:00 +12°C° 0 mm 1 mps 761 mmHg 90%
    02:00 +12°C° 0 mm 1 mps 761 mmHg 90%
    03:00 +12°C° 0 mm 1 mps 761 mmHg 90%
    04:00 +12°C° 0 mm 1 mps 761 mmHg 90%
    05:00 +12°C° 0 mm 2 mps 761 mmHg 90%
    06:00 +12°C° 0 mm 2 mps 761 mmHg 90%
    07:00 +12°C° 0 mm 2 mps 761 mmHg 90%
    08:00 +12°C° 0 mm 3 mps 761 mmHg 82%
    09:00 +14°C° 0 mm 4 mps 762 mmHg 75%
    10:00 +15°C° 0 mm 4 mps 762 mmHg 68%
    11:00 +16°C° 0 mm 5 mps 762 mmHg 62%
    12:00 +16°C° 0 mm 6 mps 762 mmHg 57%
    13:00 +17°C° 0 mm 7 mps 761 mmHg 51%
    14:00 +16°C° 0 mm 7 mps 761 mmHg 55%
    15:00 +16°C° 0 mm 7 mps 761 mmHg 58%
    16:00 +15°C° 0 mm 8 mps 761 mmHg 62%
    17:00 +15°C° 0 mm 7 mps 761 mmHg 66%
    18:00 +14°C° 0 mm 7 mps 761 mmHg 70%
    19:00 +14°C° 0 mm 6 mps 761 mmHg 74%
    20:00 +14°C° 0 mm 6 mps 761 mmHg 75%
    21:00 +14°C° 0 mm 6 mps 761 mmHg 76%
    22:00 +14°C° 0 mm 6 mps 762 mmHg 77%
    23:00 +13°C° 0 mm 5 mps 762 mmHg 79%

    Day after tomorrow, 20 November, Monday

    Time Temperature Precipitation Wind Pressure Humidity
    00:00 +13°C° 0 mm 5 mps 762 mmHg 81%
    01:00 +13°C° 0 mm 5 mps 762 mmHg 83%
    02:00 +12°C° 0 mm 5 mps 762 mmHg 83%
    03:00 +12°C° 0 mm 5 mps 762 mmHg 84%
    04:00 +12°C° 0 mm 4 mps 762 mmHg 84%
    05:00 +12°C° 0 mm 4 mps 762 mmHg 84%
    06:00 +12°C° 0 mm 4 mps 763 mmHg 85%
    07:00 +12°C° 0 mm 4 mps 763 mmHg 85%
    08:00 +13°C° 0 mm 4 mps 763 mmHg 79%
    09:00 +14°C° 0 mm 4 mps 764 mmHg 72%
    10:00 +17°C° 0 mm 4 mps 764 mmHg 66%
    11:00 +17°C° 0 mm 4 mps 764 mmHg 63%
    12:00 +18°C° 0 mm 4 mps 764 mmHg 60%
    13:00 +18°C° 0 mm 4 mps 764 mmHg 57%
    14:00 +18°C° 0 mm 4 mps 764 mmHg 58%
    15:00 +17°C° 0 mm 4 mps 764 mmHg 59%
    16:00 +17°C° 0 mm 4 mps 764 mmHg 61%
    17:00 +15°C° 0 mm 4 mps 764 mmHg 67%
    18:00 +13°C° 0 mm 3 mps 764 mmHg 74%
    19:00 +12°C° 0 mm 3 mps 764 mmHg 81%
    20:00 +12°C° 0 mm 3 mps 765 mmHg 81%
    21:00 +12°C° 0 mm 3 mps 765 mmHg 82%
    22:00 +11°C° 0 mm 3 mps 765 mmHg 82%
    23:00 +11°C° 0 mm 3 mps 765 mmHg 82%

    21 November, Tuesday

    Time Temperature Precipitation Wind Pressure Humidity
    00:00 +11°C° 0 mm 3 mps 765 mmHg 82%
    01:00 +11°C° 0 mm 3 mps 764 mmHg 82%
    02:00 +11°C° 0 mm 3 mps 764 mmHg 82%
    03:00 +11°C° 0 mm 3 mps 764 mmHg 82%
    04:00 +10°C° 0 mm 3 mps 763 mmHg 83%
    05:00 +10°C° 0 mm 3 mps 764 mmHg 83%
    06:00 +10°C° 0 mm 3 mps 764 mmHg 83%
    07:00 +10°C° 0 mm 3 mps 764 mmHg 84%
    08:00 +12°C° 0 mm 3 mps 764 mmHg 77%
    09:00 +14°C° 0 mm 3 mps 764 mmHg 70%
    10:00 +17°C° 0 mm 3 mps 764 mmHg 63%
    11:00 +18°C° 0 mm 3 mps 764 mmHg 59%
    12:00 +19°C° 0 mm 3 mps 764 mmHg 55%
    13:00 +20°C° 0 mm 3 mps 764 mmHg 51%
    14:00 +19°C° 0 mm 3 mps 764 mmHg 53%
    15:00 +19°C° 0 mm 3 mps 764 mmHg 56%
    16:00 +18°C° 0 mm 2 mps 764 mmHg 59%
    17:00 +16°C° 0 mm 2 mps 764 mmHg 67%
    18:00 +15°C° 0 mm 2 mps 764 mmHg 76%
    19:00 +13°C° 0 mm 2 mps 764 mmHg 85%
    20:00 +13°C° 0 mm 1 mps 764 mmHg 85%
    21:00 +12°C° 0 mm 1 mps 765 mmHg 86%
    22:00 +12°C° 0 mm 1 mps 765 mmHg 87%
    23:00 +12°C° 0 mm 1 mps 765 mmHg 87%

    22 November, Wednesday

    Time Temperature Precipitation Wind Pressure Humidity
    00:00 +12°C° 0 mm 1 mps 765 mmHg 87%
    01:00 +12°C° 0 mm 1 mps 764 mmHg 87%
    02:00 +12°C° 0 mm 1 mps 764 mmHg 86%
    03:00 +11°C° 0 mm 1 mps 764 mmHg 85%
    04:00 +11°C° 0 mm 1 mps 764 mmHg 85%
    05:00 +11°C° 0 mm 1 mps 764 mmHg 84%
    06:00 +11°C° 0 mm 1 mps 764 mmHg 83%
    07:00 +10°C° 0 mm 2 mps 764 mmHg 82%
    08:00 +13°C° 0 mm 2 mps 764 mmHg 74%
    09:00 +15°C° 0 mm 1 mps 765 mmHg 66%
    10:00 +18°C° 0 mm 1 mps 765 mmHg 59%
    11:00 +18°C° 0 mm 2 mps 765 mmHg 55%
    12:00 +19°C° 0 mm 2 mps 764 mmHg 51%
    13:00 +20°C° 0 mm 2 mps 764 mmHg 48%
    14:00 +20°C° 0 mm 2 mps 764 mmHg 51%
    15:00 +19°C° 0 mm 2 mps 764 mmHg 55%
    16:00 +19°C° 0 mm 2 mps 764 mmHg 59%
    17:00 +17°C° 0 mm 2 mps 764 mmHg 68%
    18:00 +15°C° 0 mm 2 mps 764 mmHg 77%
    19:00 +14°C° 0 mm 2 mps 764 mmHg 86%
    20:00 +14°C° 0 mm 2 mps 764 mmHg 87%
    21:00 +13°C° 0 mm 2 mps 764 mmHg 89%
    22:00 +13°C° 0 mm 2 mps 764 mmHg 91%
    23:00 +13°C° 0 mm 2 mps 764 mmHg 91%

    23 November, Thursday

    Time Temperature Precipitation Wind Pressure Humidity
    00:00 +12°C° 0 mm 3 mps 764 mmHg 91%
    01:00 +12°C° 0 mm 3 mps 764 mmHg 91%
    02:00 +12°C° 0 mm 3 mps 764 mmHg 91%
    03:00 +12°C° 0 mm 3 mps 763 mmHg 90%
    04:00 +12°C° 0 mm 3 mps 763 mmHg 90%
    05:00 +12°C° 0 mm 3 mps 763 mmHg 90%
    06:00 +12°C° 0 mm 3 mps 764 mmHg 90%
    07:00 +12°C° 0 mm 3 mps 764 mmHg 90%
    08:00 +14°C° 0 mm 3 mps 764 mmHg 85%
    09:00 +16°C° 0 mm 3 mps 764 mmHg 79%
    10:00 +18°C° 0 mm 4 mps 765 mmHg 73%
    11:00 +19°C° 0 mm 4 mps 765 mmHg 69%
    12:00 +20°C° 0 mm 4 mps 764 mmHg 64%
    13:00 +21°C° 0 mm 4 mps 764 mmHg 59%
    14:00 +20°C° 0 mm 3 mps 764 mmHg 63%
    15:00 +20°C° 0 mm 3 mps 764 mmHg 67%
    16:00 +19°C° 0 mm 3 mps 764 mmHg 71%
    17:00 +18°C° 0 mm 2 mps 764 mmHg 78%
    18:00 +16°C° 0 mm 2 mps 765 mmHg 85%
    19:00 +15°C° 0 mm 2 mps 765 mmHg 92%
    20:00 +15°C° 0 mm 2 mps 765 mmHg 92%
    21:00 +15°C° 0 mm 2 mps 765 mmHg 92%
    22:00 +14°C° 0 mm 2 mps 765 mmHg 92%
    23:00 +14°C° 0 mm 2 mps 765 mmHg 92%
    Show more